This is the latest recevied weather packets stored in our database for station/object N6GPM. If no packets are shown the sender has not sent any weather packets the latest 10 day(s).
| Time | Temp. | Humidity | Pressure | Rain* | Wind** | Luminosity | Snow |
|---|---|---|---|---|---|---|---|
| 1788057390 | 30.56° C | 37% | 1015 hPa | 0 mm | - | 0 W/m² | - |
| 1788057085 | 30.56° C | 37% | 1014.9 hPa | 0 mm | - | 1 W/m² | - |
| 1788056780 | 30.56° C | 37% | 1014.9 hPa | 0 mm | - | 2 W/m² | - |
| 1788056475 | 31.11° C | 36% | 1015.2 hPa | 0 mm | - | 4 W/m² | - |
| 1788056169 | 31.67° C | 35% | 1014.8 hPa | 0 mm | - | 7 W/m² | - |
| 1788055863 | 31.67° C | 34% | 1014.9 hPa | 0 mm | - | 11 W/m² | - |
| 1788055557 | 31.67° C | 33% | 1014.9 hPa | 0 mm | - | 15 W/m² | - |
| 1788055253 | 32.22° C | 32% | 1014.9 hPa | 0 mm | - | 20 W/m² | - |
| 1788054953 | 32.22° C | 31% | 1014.9 hPa | 0 mm | - | 26 W/m² | - |
| 1788054649 | 32.22° C | 31% | 1014.9 hPa | 0 mm | - | 32 W/m² | - |
| 1788054344 | 32.78° C | 30% | 1015 hPa | 0 mm | - | 38 W/m² | - |
| 1788054039 | 32.78° C | 29% | 1014.7 hPa | 0 mm | - | 46 W/m² | - |
| 1788053735 | 32.78° C | 29% | 1014.9 hPa | 0 mm | - | 54 W/m² | - |
| 1788053431 | 32.78° C | 30% | 1014.9 hPa | 0 mm | - | 63 W/m² | - |
| 1788053130 | 33.33° C | 30% | 1015.3 hPa | 0 mm | - | 74 W/m² | - |
| 1788052827 | 32.78° C | 29% | 1015 hPa | 0 mm | - | 85 W/m² | - |
| 1788052526 | 33.33° C | 29% | 1014.8 hPa | 0 mm | - | 97 W/m² | - |
| 1788052222 | 33.33° C | 30% | 1015 hPa | 0 mm | - | 110 W/m² | - |
| 1788051916 | 33.89° C | 30% | 1014.8 hPa | 0 mm | - | 125 W/m² | - |
| 1788051612 | 33.89° C | 29% | 1015 hPa | 0 mm | - | 140 W/m² | - |
| 1788051310 | 33.89° C | 30% | 1014.9 hPa | 0 mm | - | 157 W/m² | - |
| 1788051009 | 33.89° C | 30% | 1014.8 hPa | 0 mm | - | 175 W/m² | - |
| 1788050704 | 33.89° C | 27% | 1014.8 hPa | 0 mm | - | 193 W/m² | - |
| 1788050403 | 34.44° C | 28% | 1014.9 hPa | 0 mm | - | 213 W/m² | - |
| 1788050098 | 34.44° C | 27% | 1014.9 hPa | 0 mm | - | 233 W/m² | - |
* Rain latest hour (hover to see other rain measurements)
** Current wind speed in m/s (hover to see current wind gust speed)